Conroe, Texas, United States (77301)
Lat: 30.31N, Lon: 95.46W
Wx Zone: TXZ199
Local Info
Past Weather Observations for Today

NOTE: This archive is for the closest National Weather Service station to Conroe. Information may differ from the station used for current weather conditions.

Click here for Long-term Archive

Time Weather Temperature Dewpoint Humidity Pressure Winds Precip Visibility
11:53
Clear
82°F / 28°C 63°F / 17°C 51% 29.71 in
(1006 mb)
Variable 5.8 mph
(Variable 9 kph)
- 10SM
10:53
Clear
79°F / 26°C 64°F / 18°C 61% 29.74 in
(1007 mb)
SE 5.8 mph
(SE 9 kph)
- 10SM
09:53
Partly Cloudy
75°F / 24°C 66°F / 19°C 74% 29.74 in
(1007 mb)
ESE 6.9 mph
(ESE 11 kph)
- 10SM
08:53
Partly Cloudy
70°F / 21°C 64°F / 18°C 83% 29.74 in
(1007 mb)
E 8.1 mph
(E 13 kph)
- 10SM
07:53
Mostly Cloudy
66°F / 19°C 64°F / 18°C 94% 29.71 in
(1006 mb)
NE 6.9 mph
(NE 11 kph)
0.55 in
(13.97 mm)
10SM
07:19
Overcast
Thunder Storms
64°F / 18°C 64°F / 18°C 100% 29.74 in
(1007 mb)
ENE 9.2 mph
(ENE 15 kph)
0.55 in
(13.97 mm)
3SM
07:15
Overcast
Thunder Storms
66°F / 19°C 64°F / 18°C 94% 29.74 in
(1007 mb)
ENE 13.8 mph
(ENE 22 kph)
0.53 in
(13.46 mm)
2SM
07:04
Overcast
Thunder Storms
66°F / 19°C 66°F / 19°C 100% 29.8 in
(1009 mb)
E 8.1 mph
(E 13 kph)
0.43 in
(10.92 mm)
1/2SM
06:55
Overcast
Thunder Storms
66°F / 19°C 66°F / 19°C 100% 29.8 in
(1009 mb)
NNW 10.4 mph
(NNW 17 kph)
0.09 in
(2.29 mm)
1 1/4SM
06:53
Overcast
Thunder Storms
68°F / 20°C 66°F / 19°C 94% 29.77 in
(1008 mb)
N 13.8 mph
(N 22 kph)
0.48 in
(12.19 mm)
2SM
06:43
Overcast
Thunder Storms
68°F / 20°C 66°F / 19°C 94% 29.71 in
(1006 mb)
Variable 3.5 mph
(Variable 6 kph)
0.32 in
(8.13 mm)
9SM
06:29
Overcast
Thunder Storms
66°F / 19°C 66°F / 19°C 100% 29.68 in
(1005 mb)
E 6.9 mph
(E 11 kph)
0.32 in
(8.13 mm)
7SM
06:18
Overcast
Heavy Rain
66°F / 19°C 66°F / 19°C 100% 29.68 in
(1005 mb)
ENE 9.2 mph
(ENE 15 kph)
0.31 in
(7.87 mm)
2SM
06:11
Overcast
Heavy Rain
66°F / 19°C 66°F / 19°C 100% 29.68 in
(1005 mb)
ENE 8.1 mph
(ENE 13 kph)
0.23 in
(5.84 mm)
1 3/4SM
06:03
Overcast
Thunder Storms
66°F / 19°C 66°F / 19°C 100% 29.71 in
(1006 mb)
ESE 4.6 mph
(ESE 7 kph)
0.12 in
(3.05 mm)
1 3/4SM
05:53
Overcast
Thunder Storms
66°F / 19°C 66°F / 19°C 100% 29.71 in
(1006 mb)
ENE 3.5 mph
(ENE 6 kph)
0.21 in
(5.33 mm)
5SM
05:42
Overcast
Thunder Storms
66°F / 19°C 66°F / 19°C 100% 29.71 in
(1006 mb)
NNE 4.6 mph
(NNE 7 kph)
0.18 in
(4.57 mm)
4SM
05:12
Overcast
Rain
66°F / 19°C 66°F / 19°C 100% 29.68 in
(1005 mb)
Variable 4.6 mph
(Variable 7 kph)
0.08 in
(2.03 mm)
4SM
05:00
Overcast
Thunder Storms
68°F / 20°C 66°F / 19°C 94% 29.68 in
(1005 mb)
ENE 8.1 mph
(ENE 13 kph)
0.04 in
(1.02 mm)
4SM
04:53
Overcast
Thunder Storms
68°F / 20°C 66°F / 19°C 94% 29.65 in
(1004 mb)
Variable 4.6 mph
(Variable 7 kph)
0.29 in
(7.37 mm)
4SM
04:41
Overcast
Thunder Storms
68°F / 20°C 68°F / 20°C 100% 29.65 in
(1004 mb)
E 8.1 mph
(E 13 kph)
0.24 in
(6.10 mm)
3SM
04:27
Overcast
Thunder Storms
70°F / 21°C 68°F / 20°C 94% 29.62 in
(1003 mb)
N 6.9 mph
(N 11 kph)
0.19 in
(4.83 mm)
3SM
04:21
Overcast
Thunder Storms
70°F / 21°C 70°F / 21°C 100% 29.62 in
(1003 mb)
N 6.9 mph
(N 11 kph)
0.18 in
(4.57 mm)
2 1/2SM
04:09
Overcast
Thunder Storms
70°F / 21°C 70°F / 21°C 100% 29.62 in
(1003 mb)
NNE 4.6 mph
(NNE 7 kph)
0.11 in
(2.79 mm)
3SM
03:59
Overcast
Thunder Storms
70°F / 21°C 70°F / 21°C 100% 29.62 in
(1003 mb)
Variable 5.8 mph
(Variable 9 kph)
0.03 in
(0.76 mm)
2 1/2SM
03:53
Overcast
Thunder Storms
70°F / 21°C 70°F / 21°C 100% 29.62 in
(1003 mb)
NNW 6.9 mph
(NNW 11 kph)
1.00 in
(25.40 mm)
1 3/4SM
03:50
Overcast
Thunder Storms
70°F / 21°C 70°F / 21°C 100% 29.62 in
(1003 mb)
NNE 8.1 mph
(NNE 13 kph)
0.98 in
(24.89 mm)
1 1/2SM
03:38
Overcast
Thunder Storms
72°F / 22°C 70°F / 21°C 94% 29.62 in
(1003 mb)
Calm 0.77 in
(19.56 mm)
1/2SM
03:08
Overcast
Thunder Storms
73°F / 23°C 73°F / 23°C 100% 29.62 in
(1003 mb)
Variable 5.8 mph
(Variable 9 kph)
0.16 in
(4.06 mm)
1 3/4SM
02:53
Overcast
Thunder Storms
73°F / 23°C 73°F / 23°C 100% 29.62 in
(1003 mb)
S 6.9 mph
(S 11 kph)
0.02 in
(0.51 mm)
4SM
02:43
Overcast
Thunder Storms
73°F / 23°C 73°F / 23°C 100% 29.59 in
(1002 mb)
S 11.5 mph
(S 19 kph)
0.01 in
(0.25 mm)
4SM
02:30
Overcast
Thunder Storms
73°F / 23°C 73°F / 23°C 100% 29.59 in
(1002 mb)
SSE 12.7 mph
(SSE 20 kph)
0.00 in
(0.00 mm)
3SM
02:22
Overcast
Thunder Storms
75°F / 24°C 72°F / 22°C 89% 29.59 in
(1002 mb)
SSE 15 mph
(SSE 24 kph)
0.00 in
(0.00 mm)
3SM
02:14
Overcast
Thunder Storms
75°F / 24°C 72°F / 22°C 89% 29.59 in
(1002 mb)
SSE 12.7 mph
(SSE 20 kph)
0.00 in
(0.00 mm)
4SM
01:53
Overcast
Thunder Storms
77°F / 25°C 72°F / 22°C 83% 29.62 in
(1003 mb)
S 13.8 mph
(S 22 kph)
- 10SM
00:53
Overcast
77°F / 25°C 70°F / 21°C 79% 29.62 in
(1003 mb)
S 13.8 mph
(S 22 kph)
- 10SM
00:43
Overcast
77°F / 25°C 72°F / 22°C 83% 29.65 in
(1004 mb)
S 17.3 mph
(S 28 kph)
- 10SM
00:05
Overcast
79°F / 26°C 70°F / 21°C 74% 29.65 in
(1004 mb)
S 15 mph
(S 24 kph)
- 10SM
Time Weather Temperature Dewpoint Humidity Pressure Winds Precip Visibility


Weather for websites

WeatherForYou.com, LLC is not responsible for any damages or problems caused by this service. Current weather conditions are obtained from the closest station including government and personal stations which may have varying degrees of accuracy. Weather forecasts are derived from the NOAA NDFD. Like all things, this site belongs to Jesus Christ... He just trusts us to maintain it. If you have any questions or comments email webmaster@weatherforyou.com

Copyright © 2016, WeatherForYou.com LLC. All rights reserved.